Yakima, WA
on Thursday, January 10, 2013

Thursday
Previous Day Next Day
Daily Summary
 ActualAverageRecord
Temperature
Mean Temperature °F 30°F  
Max Temperature 46°F 37°F 61°F (1983)
Min Temperature 22°F 23°F -6°F (1980)
Degree Days
Heating Degree Days 31 35  
Month to date heating degree days 323 361  
Since 1 July heating degree days 2537 3024  
Cooling Degree Days 0 0  
Month to date cooling degree days 0 0  
Year to date cooling degree days 0 0  
Moisture
Dew Point 19°F   
Average Humidity 58    
Maximum Humidity 81    
Minimum Humidity 34    
Precipitation
Precipitation 0.00 in 0.04 in 0.64 in (1979)
Month to date precipitation 0.09 0.43  
Year to date precipitation 0.09 0.43  
Snow
Snow 0.00 in 0.20 in 10.40 in (1979)
Month to date snowfall 1.1 2.3  
Year to date snowfall 1.1 2.3  
Since 1 July snowfall 15.3 15.3  
Snow Depth 0.00 in   
Wind
Wind Speed 6 mph   
Max Wind Speed 20 mph   
Max Gust Speed 56 mph   
Visibility 10 miles   
Events     

Key: T is trace of precipitation, MM is missing value
Source: NWS Daily Summary
Time(PST)TemperatureDew PointHumidity Pressure Visibility Wind DirectionWind SpeedGust SpeedPrecipitationEvents Conditions
12:53 AM 32.0°F 21.0°F 64% 29.88 in 10.0 miles NW 6.9 mph - N/A   Clear
2:53 AM 30.0°F 19.9°F 66% 29.89 in 10.0 miles North - - N/A   Clear
3:53 AM 27.0°F 19.0°F 72% 29.91 in 10.0 miles SSW 3.5 mph - N/A   Clear
4:53 AM 25.0°F 19.0°F 78% 29.92 in 10.0 miles West 6.9 mph - N/A   Clear
5:53 AM 24.1°F 17.1°F 75% 29.93 in 10.0 miles North - - N/A   Clear
6:53 AM 24.1°F 17.1°F 75% 29.95 in 10.0 miles West 4.6 mph - N/A   Clear
7:53 AM 23.0°F 16.0°F 74% 29.98 in 10.0 miles NNW 3.5 mph - N/A   Clear
8:53 AM 30.0°F 19.9°F 66% 29.99 in 10.0 miles Calm Calm - N/A   Clear
9:53 AM 36.0°F 21.0°F 55% 29.98 in 10.0 miles West 3.5 mph - N/A   Scattered Clouds
10:53 AM 41.0°F 21.0°F 45% 29.97 in 10.0 miles Calm Calm - N/A   Scattered Clouds
11:53 AM 44.1°F 21.0°F 40% 29.94 in 10.0 miles NNW 9.2 mph - N/A   Clear
12:53 PM 45.0°F 19.9°F 37% 29.93 in 10.0 miles NW 16.1 mph - N/A   Clear
1:53 PM 46.0°F 19.9°F 35% 29.93 in 10.0 miles NNW 11.5 mph - N/A   Partly Cloudy
2:53 PM 45.0°F 19.9°F 37% 29.94 in 10.0 miles NW 18.4 mph 27.6 mph N/A   Scattered Clouds
3:53 PM 43.0°F 19.9°F 40% 29.96 in 10.0 miles NNW 10.4 mph - N/A   Scattered Clouds
4:53 PM 39.0°F 19.9°F 46% 29.97 in 10.0 miles West 4.6 mph - N/A   Scattered Clouds
5:53 PM 34.0°F 21.0°F 59% 29.98 in 10.0 miles West 3.5 mph - N/A   Clear
6:53 PM 35.1°F 21.0°F 57% 29.98 in 10.0 miles WNW 5.8 mph - N/A   Clear
7:53 PM 32.0°F 19.9°F 61% 30.00 in 10.0 miles West 3.5 mph - N/A   Clear
8:53 PM 28.4°F 19.4°F 69% 29.97 in 10.0 miles East 3.5 mph - N/A   Clear
9:53 PM 26.1°F 18.0°F 71% 30.02 in 10.0 miles WSW 3.5 mph - N/A   Clear
10:53 PM 25.0°F 18.0°F 75% 30.02 in 10.0 miles West 3.5 mph - N/A   Clear
11:53 PM 25.0°F 18.0°F 75% 30.04 in 10.0 miles West 3.5 mph - N/A   Clear
Moon Phase
Jan. 10 Jan. 11 Jan. 18 Jan. 26 Feb. 03
Sunrise:07:44 AM (PST) Moon Rise:06:28 AM (PST)1/10
Sunset:04:35 PM (PST) Moon Set:03:50 PM (PST)1/10

Copyright © 2014 The Weather Underground, Inc.